GTI343 RPVM-RPLL

Flight info

Callsign GTI343
Flight time 0h 53m
Altitude 36000
Route PARAO4P PARAO DCT ROX DCT LAIYA LAIYA5R
Aircraft B748/H-SDE3FGHIM1M2RWXY/LB1

Departure

Time 2026-05-07 07:20
Airport Mactan Cebu International Airport (RPVM)

Arrival

Time 2026-05-07 08:13
Airport Ninoy Aquino International Airport (RPLL)
Time Latitude Longitude Altitude Speed Heading
2026-05-07 06:57 10.31203 123.97847 48 ft 0 kts 225°
2026-05-07 06:59 10.31203 123.97848 48 ft 0 kts 225°
2026-05-07 07:01 10.31204 123.97848 48 ft 0 kts 225°
2026-05-07 07:05 10.31204 123.97849 48 ft 0 kts 225°
2026-05-07 07:07 10.31205 123.97849 48 ft 0 kts 225°
2026-05-07 07:10 10.31208 123.97852 48 ft 2 kts 223°
2026-05-07 07:10 10.31220 123.97862 44 ft 2 kts 209°
2026-05-07 07:10 10.31231 123.97867 43 ft 2 kts 216°
2026-05-07 07:11 10.31243 123.97878 44 ft 2 kts 222°
2026-05-07 07:11 10.31255 123.97889 42 ft 2 kts 222°
2026-05-07 07:11 10.31267 123.97900 44 ft 2 kts 222°
2026-05-07 07:11 10.31279 123.97911 43 ft 2 kts 212°
2026-05-07 07:12 10.31293 123.97919 44 ft 2 kts 177°
2026-05-07 07:12 10.31301 123.97916 43 ft 0 kts 130°
2026-05-07 07:14 10.31300 123.97917 43 ft 1 kts 130°
2026-05-07 07:15 10.31288 123.97931 42 ft 4 kts 130°
2026-05-07 07:15 10.31261 123.97964 45 ft 7 kts 132°
2026-05-07 07:15 10.31220 123.97984 47 ft 5 kts 182°
2026-05-07 07:15 10.31191 123.97973 47 ft 4 kts 216°
2026-05-07 07:16 10.31166 123.97950 44 ft 5 kts 225°
2026-05-07 07:16 10.31126 123.97909 46 ft 11 kts 225°
2026-05-07 07:16 10.31052 123.97836 46 ft 18 kts 224°
2026-05-07 07:16 10.30949 123.97732 43 ft 24 kts 224°
2026-05-07 07:17 10.30817 123.97602 42 ft 29 kts 224°
2026-05-07 07:17 10.30661 123.97445 46 ft 34 kts 224°
2026-05-07 07:17 10.30482 123.97264 44 ft 39 kts 225°
2026-05-07 07:17 10.30285 123.97066 45 ft 40 kts 224°
2026-05-07 07:18 10.30092 123.96871 45 ft 38 kts 225°
2026-05-07 07:18 10.29919 123.96721 43 ft 22 kts 191°
2026-05-07 07:18 10.29812 123.96779 44 ft 16 kts 134°
2026-05-07 07:18 10.29739 123.96855 44 ft 16 kts 133°
2026-05-07 07:19 10.29719 123.96893 43 ft 2 kts 91°
2026-05-07 07:19 10.29720 123.96898 43 ft 0 kts 76°
2026-05-07 07:19 10.29724 123.96908 43 ft 4 kts 68°
2026-05-07 07:19 10.29755 123.96941 43 ft 13 kts 44°
2026-05-07 07:20 10.29928 123.97114 42 ft 70 kts 45°
2026-05-07 07:20 10.30438 123.97625 43 ft 133 kts 44°
2026-05-07 07:20 10.31201 123.98402 142 ft 173 kts 44°
2026-05-07 07:20 10.32037 123.99264 900 ft 165 kts 46°
2026-05-07 07:21 10.32874 124.00121 1528 ft 177 kts 46°
2026-05-07 07:21 10.33771 124.01022 2125 ft 191 kts 45°
2026-05-07 07:21 10.34805 124.01940 2633 ft 207 kts 30°
2026-05-07 07:21 10.36256 124.02233 3038 ft 230 kts 358°
2026-05-07 07:22 10.37811 124.01628 3519 ft 253 kts 328°
2026-05-07 07:22 10.39235 124.00427 4149 ft 275 kts 323°
2026-05-07 07:22 10.40749 123.99197 5108 ft 283 kts 328°
2026-05-07 07:22 10.42401 123.98064 6103 ft 290 kts 331°
2026-05-07 07:23 10.44110 123.96941 7092 ft 295 kts 330°
2026-05-07 07:23 10.45821 123.95765 8147 ft 299 kts 329°
2026-05-07 07:23 10.47548 123.94552 9191 ft 305 kts 329°
2026-05-07 07:23 10.49311 123.93327 10209 ft 309 kts 329°
2026-05-07 07:24 10.51129 123.92077 11014 ft 323 kts 329°
2026-05-07 07:24 10.53046 123.90758 11672 ft 343 kts 329°
2026-05-07 07:24 10.55071 123.89351 12286 ft 363 kts 328°
2026-05-07 07:24 10.57193 123.87879 13092 ft 375 kts 328°
2026-05-07 07:25 10.60985 123.84096 14951 ft 393 kts 308°
2026-05-07 07:25 10.62566 123.81795 15900 ft 400 kts 306°
2026-05-07 07:25 10.64163 123.79460 16862 ft 405 kts 308°
2026-05-07 07:26 10.65853 123.77147 17826 ft 410 kts 309°
2026-05-07 07:26 10.67578 123.74815 18693 ft 415 kts 308°
2026-05-07 07:26 10.69291 123.72429 19533 ft 420 kts 307°
2026-05-07 07:26 10.71010 123.70007 20380 ft 425 kts 308°
2026-05-07 07:27 10.72764 123.67566 21216 ft 430 kts 308°
2026-05-07 07:27 10.74548 123.65104 22024 ft 435 kts 308°
2026-05-07 07:27 10.76345 123.62610 22822 ft 440 kts 308°
2026-05-07 07:27 10.78159 123.60079 23571 ft 445 kts 308°
2026-05-07 07:28 10.79992 123.57525 24243 ft 449 kts 307°
2026-05-07 07:28 10.81843 123.54952 24931 ft 452 kts 307°
2026-05-07 07:28 10.83707 123.52361 25627 ft 455 kts 307°
2026-05-07 07:28 10.85580 123.49752 26303 ft 458 kts 307°
2026-05-07 07:29 10.87464 123.47126 26960 ft 461 kts 307°
2026-05-07 07:29 10.89360 123.44486 27631 ft 463 kts 307°
2026-05-07 07:29 10.91265 123.41836 28284 ft 465 kts 307°
2026-05-07 07:29 10.93419 123.39379 28957 ft 467 kts 316°
2026-05-07 07:30 10.95780 123.37099 29575 ft 469 kts 316°
2026-05-07 07:30 10.98170 123.34825 30151 ft 472 kts 316°
2026-05-07 07:30 11.00570 123.32530 30666 ft 475 kts 316°
2026-05-07 07:30 11.02977 123.30204 31137 ft 479 kts 316°
2026-05-07 07:31 11.05398 123.27866 31623 ft 482 kts 316°
2026-05-07 07:31 11.07845 123.25518 32070 ft 485 kts 316°
2026-05-07 07:31 11.10310 123.23153 32498 ft 489 kts 316°
2026-05-07 07:31 11.12788 123.20766 32926 ft 492 kts 315°
2026-05-07 07:32 11.15285 123.18357 33337 ft 496 kts 315°
2026-05-07 07:32 11.17802 123.15934 33757 ft 499 kts 315°
2026-05-07 07:32 11.20318 123.13515 34347 ft 497 kts 315°
2026-05-07 07:32 11.22827 123.11097 34839 ft 496 kts 314°
2026-05-07 07:33 11.25335 123.08678 35293 ft 497 kts 314°
2026-05-07 07:33 11.27817 123.06286 35697 ft 498 kts 314°
2026-05-07 07:33 11.30336 123.03858 35822 ft 499 kts 314°
2026-05-07 07:34 11.35370 122.99004 35822 ft 497 kts 315°
2026-05-07 07:34 11.40379 122.94169 35825 ft 495 kts 315°
2026-05-07 07:35 11.45372 122.89350 35826 ft 493 kts 315°
2026-05-07 07:35 11.50342 122.84550 35825 ft 491 kts 315°
2026-05-07 07:36 11.55299 122.79759 35822 ft 491 kts 315°
2026-05-07 07:36 11.60346 122.75069 35838 ft 492 kts 324°
2026-05-07 07:37 11.66043 122.71180 35847 ft 493 kts 325°
2026-05-07 07:37 11.71742 122.67282 35845 ft 493 kts 324°
2026-05-07 07:38 11.77451 122.63381 35843 ft 495 kts 324°
2026-05-07 07:38 11.83164 122.59475 35840 ft 493 kts 324°
2026-05-07 07:39 11.87894 122.56236 35847 ft 492 kts 324°
2026-05-07 07:39 11.94543 122.51688 35838 ft 492 kts 324°
2026-05-07 07:40 12.00226 122.47794 35836 ft 492 kts 324°
2026-05-07 07:40 12.04952 122.44556 35838 ft 492 kts 324°
2026-05-07 07:41 12.10636 122.40660 35832 ft 492 kts 324°
2026-05-07 07:41 12.16321 122.36760 35832 ft 492 kts 324°
2026-05-07 07:42 12.22007 122.32859 35835 ft 493 kts 324°
2026-05-07 07:42 12.27708 122.28944 35828 ft 494 kts 324°
2026-05-07 07:43 12.33408 122.25028 35833 ft 494 kts 324°
2026-05-07 07:43 12.39112 122.21108 35834 ft 494 kts 324°
2026-05-07 07:44 12.44814 122.17186 35835 ft 494 kts 324°
2026-05-07 07:44 12.50523 122.13258 35840 ft 494 kts 324°
2026-05-07 07:45 12.56231 122.09328 35833 ft 495 kts 324°
2026-05-07 07:45 12.61938 122.05397 35834 ft 495 kts 324°
2026-05-07 07:46 12.67652 122.01459 35837 ft 495 kts 324°
2026-05-07 07:46 12.73366 121.97514 35838 ft 495 kts 324°
2026-05-07 07:47 12.79046 121.93604 35835 ft 495 kts 324°
2026-05-07 07:47 12.84755 121.89656 35837 ft 495 kts 323°
2026-05-07 07:48 12.90468 121.85713 35840 ft 495 kts 324°
2026-05-07 07:48 12.96178 121.81765 35838 ft 495 kts 323°
2026-05-07 07:49 13.01889 121.77816 35845 ft 495 kts 323°
2026-05-07 07:49 13.07602 121.73864 35844 ft 495 kts 323°
2026-05-07 07:50 13.13312 121.69911 35494 ft 494 kts 323°
2026-05-07 07:50 13.16166 121.67934 34894 ft 496 kts 323°
2026-05-07 07:50 13.19020 121.65957 34319 ft 494 kts 323°
2026-05-07 07:50 13.21867 121.63984 33737 ft 493 kts 323°
2026-05-07 07:51 13.24704 121.62017 33134 ft 490 kts 324°
2026-05-07 07:51 13.27521 121.60063 32570 ft 487 kts 324°
2026-05-07 07:51 13.30321 121.58125 32008 ft 484 kts 324°
2026-05-07 07:51 13.33097 121.56192 31439 ft 481 kts 325°
2026-05-07 07:52 13.35864 121.54281 30891 ft 478 kts 325°
2026-05-07 07:52 13.38609 121.52373 30333 ft 475 kts 325°
2026-05-07 07:52 13.41335 121.50474 29751 ft 472 kts 326°
2026-05-07 07:52 13.44045 121.48592 29178 ft 468 kts 326°
2026-05-07 07:53 13.46729 121.46732 28631 ft 463 kts 326°
2026-05-07 07:53 13.49377 121.44892 28270 ft 455 kts 326°
2026-05-07 07:53 13.51955 121.43097 28139 ft 441 kts 326°
2026-05-07 07:53 13.54463 121.41353 27993 ft 429 kts 326°
2026-05-07 07:54 13.56905 121.39655 27853 ft 418 kts 325°
2026-05-07 07:54 13.59248 121.37904 27311 ft 417 kts 324°
2026-05-07 07:54 13.61603 121.36160 26769 ft 417 kts 325°
2026-05-07 07:54 13.63959 121.34426 26199 ft 413 kts 324°
2026-05-07 07:55 13.66230 121.32733 25653 ft 394 kts 324°
2026-05-07 07:55 13.68428 121.31084 25177 ft 392 kts 325°
2026-05-07 07:55 13.70639 121.29437 24659 ft 394 kts 325°
2026-05-07 07:55 13.72839 121.27800 24107 ft 383 kts 326°
2026-05-07 07:56 13.74964 121.26215 23650 ft 376 kts 326°
2026-05-07 07:56 13.77088 121.24632 23103 ft 379 kts 326°
2026-05-07 07:56 13.79197 121.23062 22619 ft 380 kts 325°
2026-05-07 07:56 13.81338 121.21461 22106 ft 381 kts 326°
2026-05-07 07:57 13.83485 121.19859 21609 ft 382 kts 325°
2026-05-07 07:57 13.85638 121.18253 21096 ft 383 kts 325°
2026-05-07 07:57 13.87797 121.16641 20592 ft 384 kts 325°
2026-05-07 07:57 13.89963 121.15022 20080 ft 385 kts 325°
2026-05-07 07:58 13.92134 121.13400 19587 ft 386 kts 325°
2026-05-07 07:58 13.94312 121.11774 19059 ft 388 kts 325°
2026-05-07 07:58 13.96500 121.10137 18550 ft 389 kts 326°
2026-05-07 07:58 13.98695 121.08496 18038 ft 390 kts 326°
2026-05-07 07:59 14.00895 121.06855 17473 ft 390 kts 325°
2026-05-07 07:59 14.03087 121.05212 16968 ft 389 kts 326°
2026-05-07 07:59 14.05277 121.03576 16442 ft 388 kts 325°
2026-05-07 07:59 14.07460 121.01943 15944 ft 387 kts 325°
2026-05-07 08:00 14.09636 121.00315 15413 ft 387 kts 325°
2026-05-07 08:00 14.11810 120.98684 14921 ft 386 kts 325°
2026-05-07 08:00 14.13981 120.97061 14411 ft 386 kts 325°
2026-05-07 08:00 14.16149 120.95437 13905 ft 385 kts 325°
2026-05-07 08:01 14.18379 120.93933 13372 ft 382 kts 332°
2026-05-07 08:01 14.20686 120.92576 12845 ft 380 kts 332°
2026-05-07 08:01 14.22976 120.91231 12343 ft 378 kts 332°
2026-05-07 08:01 14.25188 120.89745 11649 ft 383 kts 319°
2026-05-07 08:02 14.26897 120.87656 11179 ft 381 kts 301°
2026-05-07 08:02 14.27871 120.85177 10935 ft 364 kts 282°
2026-05-07 08:02 14.27994 120.82688 10662 ft 336 kts 260°
2026-05-07 08:02 14.27277 120.80505 10340 ft 313 kts 237°
2026-05-07 08:03 14.25865 120.78906 9948 ft 295 kts 213°
2026-05-07 08:03 14.24177 120.77803 9555 ft 281 kts 214°
2026-05-07 08:03 14.22889 120.76353 9020 ft 275 kts 244°
2026-05-07 08:03 14.22588 120.74475 8473 ft 265 kts 288°
2026-05-07 08:04 14.23648 120.72944 7643 ft 265 kts 328°
2026-05-07 08:04 14.25218 120.72281 7786 ft 240 kts 356°
2026-05-07 08:04 14.26919 120.72051 7985 ft 252 kts 353°
2026-05-07 08:04 14.28705 120.71717 7279 ft 270 kts 351°
2026-05-07 08:05 14.30461 120.71196 7160 ft 258 kts 334°
2026-05-07 08:05 14.32007 120.70347 6745 ft 252 kts 348°
2026-05-07 08:05 14.33688 120.70301 6414 ft 237 kts 19°
2026-05-07 08:05 14.35061 120.71119 6136 ft 227 kts 51°
2026-05-07 08:06 14.35761 120.72522 5837 ft 215 kts 81°
2026-05-07 08:06 14.36029 120.73931 5515 ft 189 kts 77°
2026-05-07 08:06 14.36465 120.75131 5215 ft 169 kts 64°
2026-05-07 08:06 14.36982 120.76170 5012 ft 158 kts 65°
2026-05-07 08:07 14.37497 120.77132 4789 ft 151 kts 64°
2026-05-07 08:07 14.38001 120.78068 4598 ft 149 kts 64°
2026-05-07 08:07 14.38514 120.79022 4410 ft 151 kts 64°
2026-05-07 08:07 14.39015 120.79957 4229 ft 148 kts 63°
2026-05-07 08:08 14.39514 120.80881 4049 ft 146 kts 64°
2026-05-07 08:08 14.40003 120.81794 3836 ft 147 kts 64°
2026-05-07 08:08 14.40500 120.82717 3672 ft 146 kts 63°
2026-05-07 08:08 14.40997 120.83635 3484 ft 150 kts 64°
2026-05-07 08:09 14.41518 120.84611 3340 ft 162 kts 64°
2026-05-07 08:09 14.42065 120.85632 3132 ft 161 kts 63°
2026-05-07 08:09 14.42618 120.86664 2925 ft 166 kts 62°
2026-05-07 08:09 14.43173 120.87693 2694 ft 163 kts 63°
2026-05-07 08:10 14.43727 120.88726 2476 ft 164 kts 62°
2026-05-07 08:10 14.44296 120.89786 2256 ft 168 kts 62°
2026-05-07 08:10 14.44846 120.90799 2019 ft 156 kts 62°
2026-05-07 08:10 14.45363 120.91761 1818 ft 152 kts 63°
2026-05-07 08:11 14.45882 120.92725 1632 ft 153 kts 62°
2026-05-07 08:11 14.46393 120.93675 1430 ft 152 kts 63°
2026-05-07 08:11 14.46907 120.94630 1244 ft 151 kts 63°
2026-05-07 08:11 14.47419 120.95584 1051 ft 153 kts 62°
2026-05-07 08:12 14.47929 120.96533 866 ft 149 kts 62°
2026-05-07 08:12 14.48425 120.97467 682 ft 147 kts 63°
2026-05-07 08:12 14.48925 120.98396 478 ft 150 kts 63°
2026-05-07 08:12 14.49430 120.99342 327 ft 156 kts 64°
2026-05-07 08:13 14.49982 121.00342 109 ft 161 kts 64°
2026-05-07 08:13 14.50478 121.01265 87 ft 129 kts 62°
2026-05-07 08:13 14.50871 121.01978 86 ft 85 kts 53°
2026-05-07 08:13 14.51106 121.02271 87 ft 30 kts 41°
2026-05-07 08:14 14.51152 121.02296 85 ft 0 kts
2026-05-07 08:14 14.51155 121.02296 85 ft 1 kts
2026-05-07 08:14 14.51157 121.02296 85 ft 0 kts
2026-05-07 08:15 14.51174 121.02297 82 ft 2 kts 354°
2026-05-07 08:15 14.51196 121.02284 84 ft 4 kts 317°
2026-05-07 08:15 14.51199 121.02272 84 ft 1 kts 279°
2026-05-07 08:15 14.51196 121.02262 83 ft 2 kts 248°
2026-05-07 08:16 14.51178 121.02229 84 ft 9 kts 238°
2026-05-07 08:16 14.51130 121.02147 84 ft 18 kts 239°
2026-05-07 08:16 14.51056 121.02013 82 ft 25 kts 240°
2026-05-07 08:16 14.50958 121.01839 67 ft 31 kts 239°